Regional Weather Roundup
Issued by NWS

Home | Current Version | Previous Version | Text Only | Print | Product List | Glossary On
Versions: 1 2 3 4 5 6 7 8 9 10 11 12 13 14 15 16 17 18 19 20 21 22 23 24 25 26 27 28 29 30 31 32 33 34 35 36 37 38 39 40 41 42 43 44 45 46 47 48 49 50
000
ASUS45 KCYS 301810
RWRWY

WYOMING REGIONAL WEATHER ROUNDUP
NATIONAL WEATHER SERVICE CHEYENNE WY
1200 PM MDT MON MAY 30 2016

NOTE:  "FAIR" INDICATES FEW OR NO CLOUDS BELOW 12,000 FEET
WITH NO SIGNIFICANT WEATHER AND/OR OBSTRUCTIONS TO VISIBILITY.

WYZ001-301900-
YELLOWSTONE NATIONAL PARK

CITY           SKY/WX    TMP DP  RH WIND       PRES   REMARKS
LK YELLOWSTONE   N/A     51  33  50 VRB7      30.17F
6HR MIN TEMP:  36; 6HR MAX TEMP:  52;

W YELLOWSTONE  NOT AVBL

$$
WYZ002>013-054>058-071-098>099-301900-
NORTHERN WYOMING

CITY           SKY/WX    TMP DP  RH WIND       PRES   REMARKS
JACKSON        PTSUNNY   59  28  31 SW12G17   30.12F
CODY           CLOUDY    57  43  58 N15       30.04R
GREYBULL       FAIR      71  39  31 NW12      29.96S
6HR MIN TEMP:  59; 6HR MAX TEMP:  71;

WORLAND        FAIR      69  41  36 VRB5      29.98F
6HR MIN TEMP:  56; 6HR MAX TEMP:  69;

SHERIDAN       PTSUNNY   61  45  55 CALM      30.02S
6HR MIN TEMP:  53; 6HR MAX TEMP:  62;

BUFFALO        FAIR      59  44  57 N7        30.04F
6HR MIN TEMP:  52; 6HR MAX TEMP:  60;

GILLETTE       FAIR      61  47  59 N10       30.00S
6HR MIN TEMP:  55; 6HR MAX TEMP:  61;

HULETT         CLOUDY    59  50  72 NW9       30.00R
NEWCASTLE      FAIR      70  37  30 NW18G25   29.93R

$$
WYZ014>020-022>026-101>103-301900-
CENTRAL WYOMING

CITY           SKY/WX    TMP DP  RH WIND       PRES   REMARKS
BIG PINEY      PTSUNNY   59  32  36 NW16      30.17S
6HR MIN TEMP:  38; 6HR MAX TEMP:  62;

PINEDALE       FAIR      55  34  44 NW17G25   30.18S
DUBOIS         MOCLDY    59  23  25 NW17G28   30.10S
LANDER         PTSUNNY   66  37  34 NE5       30.01F
6HR MIN TEMP:  52; 6HR MAX TEMP:  68;

RIVERTON       FAIR      68  36  30 S10       30.03F
6HR MIN TEMP:  54; 6HR MAX TEMP:  69;

CASPER         CLOUDY    65  41  41 NE10      30.03F
6HR MIN TEMP:  53; 6HR MAX TEMP:  67;

DOUGLAS          N/A    N/A N/A N/A MISG      30.02R

$$
WYZ021-027>030-104>119-301900-
SOUTHERN WYOMING

CITY           SKY/WX    TMP DP  RH WIND       PRES   REMARKS
EVANSTON       LGT RAIN  61  40  45 NW8       30.20S
6HR MIN TEMP:  43; 6HR MAX TEMP:  61; 6HR PCP: TRACE;

KEMMERER         N/A     59  37  44 W18       30.20S
FORT BRIDGER   PTCLDY    64  36  34 W14G23    30.22S
ROCK SPRINGS   FAIR      62  35  36 W10G20    30.15F
6HR MIN TEMP:  45; 6HR MAX TEMP:  62;

DIXON          FAIR      63  41  43 W6        30.18S
RAWLINS        FAIR      65  35  33 W14G23    30.13F
6HR MIN TEMP:  46; 6HR MAX TEMP:  65;

SARATOGA       FAIR      61  36  39 W14G25    30.17S
LARAMIE        FAIR      61  35  37 W12G22    30.11F
6HR MIN TEMP:  39; 6HR MAX TEMP:  63;

CHEYENNE       TSTM      62  42  47 N14G25    30.05S
6HR MIN TEMP:  45; 6HR MAX TEMP:  71; 6HR PCP: TRACE;

TORRINGTON     FAIR      74  39  28 NW16G22   29.95F
6HR MIN TEMP:  46; 6HR MAX TEMP:  76;

PINE BLUFFS    FAIR      73  41  31 N12G17    30.01F

$$



USA.gov is the U.S. government's official web portal to all federal, state and local government web resources and services.